Date,TemperatureHighF,TemperatureAvgF,TemperatureLowF,DewpointHighF,DewpointAvgF,DewpointLowF,HumidityHigh,HumidityAvg,HumidityLow,PressureMaxIn,PressureMinIn,WindSpeedMaxMPH,WindSpeedAvgMPH,GustSpeedMaxMPH,PrecipitationSumIn
2013-2-1,49,44,28,25,21,18,79,41,31,0.00,40.00,17,8,28,0.00
2013-2-2,58,47,23,28,22,18,87,41,22,0.00,40.00,12,-9,22,0.00
2013-2-3,52,43,27,26,22,16,65,45,26,0.00,40.00,9,-11,17,0.00
2013-2-4,56,47,30,25,19,12,49,33,26,0.00,40.00,19,6,34,0.00
2013-2-5,62,50,32,33,26,15,51,39,32,0.00,40.00,12,4,20,0.00
2013-2-6,55,50,37,32,29,25,62,43,37,0.00,40.00,14,6,25,0.00
2013-2-7,49,42,26,29,22,19,99,48,31,0.00,40.00,11,5,16,0.00
2013-2-8,53,41,24,21,17,13,64,39,23,0.00,40.00,6,3,10,0.00
2013-2-9,40,33,24,30,25,16,92,71,53,0.00,40.00,8,3,13,0.00
2013-2-10,37,32,27,22,17,12,82,53,39,0.00,40.00,11,5,19,0.00
2013-2-11,27,25,19,20,18,14,85,74,69,0.00,40.00,8,3,12,0.00
2013-2-12,45,36,15,16,9,5,75,35,21,0.00,40.00,9,4,13,0.00
2013-2-13,48,40,26,22,18,10,54,42,34,0.00,40.00,17,-5,36,0.00
2013-2-14,33,28,24,27,24,20,99,85,64,0.00,40.00,9,-11,18,0.00
2013-2-15,42,34,17,24,18,13,96,54,32,0.00,40.00,14,4,21,0.00
2013-2-16,55,50,42,24,21,18,37,31,28,0.00,40.00,17,9,34,0.00
2013-2-17,61,55,48,17,15,12,26,20,17,0.00,40.00,17,-4,34,0.00
2013-2-18,41,36,24,24,15,9,84,43,30,0.00,40.00,16,7,26,0.00
2013-2-19,41,33,21,22,18,12,68,54,41,0.00,40.00,7,3,11,0.00
2013-2-20,38,30,20,30,23,17,99,75,55,0.00,40.00,10,4,14,0.00
2013-2-21,32,25,15,22,18,14,97,76,59,0.00,40.00,6,2,10,0.00
2013-2-22,35,30,18,21,18,16,94,63,52,0.00,40.00,11,5,16,0.00
2013-2-23,42,33,18,24,19,11,78,58,43,0.00,40.00,7,3,12,0.00
2013-2-24,29,27,26,29,26,25,99,96,92,0.00,40.00,12,6,22,0.10
2013-2-25,40,31,11,21,17,10,95,58,42,0.00,40.00,10,4,17,0.00
2013-2-26,38,31,25,28,24,19,93,75,57,0.00,40.00,11,4,17,0.00
2013-2-27,39,33,16,16,12,10,74,43,32,0.00,40.00,9,4,13,0.00
2013-2-28,43,38,20,19,14,9,62,38,30,0.00,40.00,16,6,25,0.00